K8FAM-13 Weather Reports


time (UTC)temp
C
wind
direction
speed
KPH
gust
KPH
rain 1hr
cm
rain 24hr
cm
rain mn
cm
humidity
%
barometer
mb
20260510070023 12 152 1.6 8.0 0.08 0.91 0.08 78 1009.5
20260510064538 12 200 1.6 6.4 0.08 0.91 0.08 79 1009.6
20260510063025 12 331 1.6 4.8 0.05 0.89 0.05 79 1010.1
20260510061519 12 332 0.0 6.4 0.03 0.86 0.03 79 1010.9
20260510060017 11 165 1.6 6.4 0.00 0.84 0.00 78 1009.9
20260510054516 12 120 0.0 1.6 0.03 0.84 0.00 78 1009.9
20260510053034 12 120 0.0 6.4 0.05 0.84 0.00 78 1010.1
20260510051513 12 20 3.2 14.5 0.10 0.84 0.00 78 1010.5
20260510050009 12 33 0.0 1.6 0.13 0.81 0.81 78 1009.8
20260510044510 12 33 0.0 9.7 0.15 0.81 0.81 78 1009.9
20260510043009 12 352 0.0 6.4 0.13 0.79 0.79 77 1009.8
20260510041508 12 114 0.0 1.6 0.08 0.71 0.71 77 1009.7
20260510040008 12 116 0.0 4.8 0.03 0.71 0.69 77 1009.5
20260510034508 12 155 0.0 6.4 0.00 0.69 0.66 76 1009.3
20260510033007 12 131 0.0 3.2 0.05 0.69 0.66 74 1009.4
20260510031506 12 68 0.0 1.6 0.30 0.69 0.66 69 1009.5
20260510030006 12 67 0.0 1.6 0.48 0.71 0.66 68 1009.6
20260510024606 12 67 0.0 4.8 0.48 0.71 0.66 68 1009.8
20260510023005 13 343 0.0 8.0 0.41 0.64 0.58 65 1010.4
20260510021505 13 281 3.2 29.0 0.15 0.38 0.33 62 1010.6
20260510020003 15 213 6.4 19.3 0.00 0.25 0.18 57 1009.2
20260510014503 17 2 8.0 22.5 0.00 0.25 0.18 52 1008.8
20260510013002 17 288 0.0 9.7 0.00 0.25 0.18 52 1007.8
20260510011502 17 261 1.6 8.0 0.00 0.25 0.18 51 1007.5
20260510010001 17 248 1.6 9.7 0.00 0.25 0.18 51 1007.4
20260510004501 17 215 1.6 14.5 0.00 0.25 0.18 50 1007.4
20260510003108 17 191 3.2 12.9 0.00 0.25 0.18 49 1007.3
20260510001600 17 306 3.2 9.7 0.00 0.25 0.18 48 1007.2
20260510000127 18 315 1.6 16.1 0.00 0.25 0.18 47 1007.1
20260509234600 18 181 3.2 9.7 0.00 0.25 0.18 46 1006.9
20260509233059 18 206 4.8 17.7 0.00 0.25 0.18 46 1006.7
20260509231621 18 257 1.6 19.3 0.00 0.25 0.18 45 1006.7
20260509230108 18 275 1.6 22.5 0.00 0.25 0.18 47 1006.8
20260509224557 19 229 8.0 20.9 0.00 0.25 0.18 44 1006.9
20260509223105 19 46 8.0 19.3 0.00 0.25 0.18 44 1006.8
20260509221612 19 279 3.2 17.7 0.00 0.25 0.18 47 1006.7
20260509220055 20 161 1.6 20.9 0.00 0.25 0.18 45 1006.8
20260509214601 20 208 3.2 17.7 0.00 0.25 0.18 46 1007.1
20260509213051 19 238 3.2 16.1 0.00 0.25 0.18 47 1007.4
20260509211552 20 266 3.2 22.5 0.00 0.25 0.18 47 1007.2
20260509210050 19 266 4.8 14.5 0.00 0.25 0.18 47 1007.3
20260509204547 18 297 3.2 19.3 0.00 0.25 0.18 49 1007.5
20260509203046 19 268 6.4 22.5 0.00 0.25 0.18 48 1007.8
20260509201545 19 247 3.2 17.7 0.00 0.25 0.18 44 1007.8
20260509200047 18 242 9.7 24.1 0.00 0.25 0.18 47 1007.9
20260509194550 19 276 6.4 20.9 0.00 0.25 0.18 49 1008.2
20260509193040 18 239 4.8 22.5 0.00 0.25 0.18 50 1008.4
20260509191536 18 286 6.4 20.9 0.00 0.25 0.18 53 1008.4
20260509190033 18 202 4.8 16.1 0.00 0.25 0.18 51 1008.5
20260509184535 17 241 6.4 16.1 0.00 0.25 0.18 54 1008.6
20260509183036 17 143 1.6 14.5 0.00 0.25 0.18 57 1009.1
20260509181527 17 290 3.2 17.7 0.00 0.25 0.18 59 1009.1
20260509180024 16 325 6.4 22.5 0.00 0.25 0.18 60 1009.4
20260509174538 15 250 3.2 12.9 0.00 0.25 0.18 64 1009.4
20260509173019 15 283 0.0 12.9 0.00 0.25 0.18 64 1009.4
20260509171526 15 270 3.2 14.5 0.00 0.25 0.18 63 1009.3
20260509170019 15 252 3.2 12.9 0.00 0.25 0.18 63 1009.3
20260509164518 15 248 4.8 19.3 0.00 0.25 0.18 62 1009.2
20260509163014 14 258 0.0 12.9 0.00 0.25 0.18 66 1009.2
20260509161521 14 155 6.4 12.9 0.00 0.25 0.18 66 1009.2
20260509160010 13 354 3.2 8.0 0.00 0.25 0.18 69 1009.0
20260509154509 13 204 6.4 20.9 0.00 0.25 0.18 68 1008.9
20260509153006 13 260 1.6 16.1 0.00 0.25 0.18 74 1008.8
20260509151505 12 273 3.2 12.9 0.00 0.25 0.18 73 1008.9
20260509150006 12 304 1.6 8.0 0.00 0.25 0.18 77 1008.8
20260509144559 12 277 1.6 6.4 0.00 0.25 0.18 78 1009.0
20260509143100 11 279 0.0 8.0 0.00 0.25 0.18 78 1009.1
20260509141559 11 276 1.6 6.4 0.00 0.25 0.18 78 1009.1
20260509140101 11 137 1.6 9.7 0.00 0.25 0.18 78 1009.0
20260509134549 11 250 4.8 12.9 0.00 0.25 0.18 78 1009.0
20260509133048 11 162 1.6 6.4 0.00 0.25 0.18 78 1009.0
20260509131549 10 290 3.2 14.5 0.03 0.25 0.18 78 1009.1
20260509130046 10 214 1.6 8.0 0.05 0.25 0.18 78 1009.2
20260509124543 10 261 3.2 14.5 0.05 0.25 0.18 78 1009.3
20260509123048 10 257 0.0 8.0 0.05 0.25 0.18 78 1009.4
20260509121540 10 266 0.0 6.4 0.03 0.23 0.15 78 1009.5
20260509120040 10 199 1.6 6.4 0.03 0.20 0.13 78 1009.4
20260509114538 10 279 1.6 8.0 0.03 0.20 0.13 78 1009.4
20260509113038 10 267 3.2 8.0 0.03 0.20 0.13 78 1009.2
20260509111536 10 154 1.6 8.0 0.05 0.20 0.13 78 1009.2
20260509110035 10 175 3.2 6.4 0.08 0.18 0.10 77 1009.2
20260509104533 10 229 3.2 9.7 0.08 0.18 0.10 78 1009.1
20260509103036 10 250 3.2 8.0 0.05 0.15 0.08 78 1009.1
20260509101531 10 106 1.6 8.0 0.05 0.15 0.08 78 1009.1
20260509100029 10 262 0.0 9.7 0.03 0.10 0.03 78 1009.1
20260509094527 10 157 0.0 4.8 0.03 0.10 0.03 78 1009.2
20260509093037 10 206 1.6 6.4 0.03 0.10 0.03 78 1009.4
20260509091523 9 158 1.6 4.8 0.03 0.10 0.03 78 1009.6
20260509090023 9 293 0.0 4.8 0.00 0.08 0.00 78 1009.6
20260509084525 9 15 0.0 0.0 0.00 0.08 0.00 78 1009.7
20260509083019 9 16 0.0 0.0 0.00 0.08 0.00 78 1009.8
20260509081519 9 16 0.0 0.0 0.00 0.08 0.00 78 1009.9
20260509080018 9 16 0.0 0.0 0.00 0.08 0.00 78 1009.8
20260509074516 9 16 0.0 0.0 0.00 0.08 0.00 78 1009.9
20260509073015 9 16 0.0 0.0 0.00 0.08 0.00 77 1010.1
20260509071514 9 16 0.0 0.0 0.00 0.08 0.00 77 1010.0